Wind_Speed
10 10 10 10 10 10 10 10 11 11 11 11 11 11 11 11 11 11 12 12 11 11 12 11 12 12 12 12 12 12 12 11 11 11 12 11 11 12 12 12 12 12 12
11 11 11 12 11 11 11 11 11 12 12 12 12 12 13 12 12 12 12 12 12 12 12 12 12 12 12 12 12 12 12 13 13 12 12 13 13 12 13 13 13 13 13
11 12 12 12 12 12 12 12 12 12 12 13 13 13 13 13 13 13 13 13 13 13 13 13 13 13 13 13 13 13 13 14 14 14 14 14 14 14 14 14 14 14 14
13 13 13 13 13 13 14 14 14 14 13 13 14 14 14 14 14 14 14 14 14 14 15 15 14 14 14 14 15 15 15 15 15 15 15 15 15 15 15 15 15 15 15
14 14 14 14 14 14 15 15 15 15 15 15 15 16 16 16 16 16 16 16 16 16 16 16 16 16 15 15 16 16 16 16 16 16 16 16 16 16 16 16 16 16 16
14 14 14 15 15 15 16 16 16 16 16 17 17 17 17 17 17 18 18 18 17 17 18 17 18 18 17 17 17 17 17 17 17 17 17 17 17 17 17 17 16 17 17
15 15 15 16 16 17 17 17 17 17 17 18 19 19 19 19 19 19 20 20 19 19 19 20 20 20 19 19 19 19 19 19 19 19 19 19 19 19 18 18 18 17 18
16 16 16 17 17 18 18 19 19 19 19 20 20 21 21 21 21 21 21 22 21 21 21 21 21 21 21 21 21 21 21 21 21 21 21 21 21 21 20 20 20 19 19
17 18 18 19 19 19 20 20 21 21 21 22 22 22 22 22 22 22 23 23 23 23 23 23 23 23 23 23 23 23 23 23 23 23 23 23 23 22 22 22 21 21 22
19 19 20 20 21 21 22 23 23 23 23 23 24 24 23 23 23 23 24 24 24 24 25 25 25 25 25 25 25 25 25 26 25 25 25 24 24 24 24 23 24 24 24
20 20 21 21 22 22 23 23 23 24 24 24 24 24 24 24 25 25 25 26 26 25 26 26 26 26 26 27 27 27 27 27 27 27 26 25 26 25 25 26 26 26 26
21 21 21 21 22 23 23 23 24 25 25 25 25 25 25 25 25 26 27 27 27 27 27 27 28 28 28 28 28 29 29 29 29 29 28 28 27 27 27 27 28 28 28
22 22 22 22 23 23 23 24 25 25 26 26 26 26 26 26 27 28 28 28 27 28 28 28 29 30 30 30 30 30 30 30 30 30 30 30 29 29 29 29 29 29 28
22 23 23 23 24 24 24 25 25 26 26 27 28 27 28 28 28 29 30 29 28 28 28 29 30 31 31 31 31 31 31 31 31 31 32 32 32 31 31 31 30 29 29
23 24 24 24 24 25 25 26 26 27 27 28 28 29 29 29 29 29 30 30 29 29 29 30 31 32 32 32 32 32 32 33 32 33 33 33 33 32 32 31 30 29 29
24 25 25 25 26 26 26 26 27 28 28 28 29 29 30 30 30 30 31 31 30 30 31 31 32 32 32 32 33 33 34 34 34 34 34 35 35 34 33 31 31 30 30
25 26 26 26 27 27 28 28 29 29 29 29 29 30 31 31 31 31 31 31 31 32 32 33 33 33 33 33 34 34 35 34 34 34 35 35 35 34 33 33 32 31 31
26 26 27 27 28 29 30 30 31 31 30 30 30 31 32 32 33 33 33 33 33 34 34 34 34 33 34 34 35 35 34 34 34 34 34 35 35 34 34 34 33 33 33
28 28 28 29 30 30 30 31 31 31 31 31 32 32 33 33 33 34 34 34 34 35 35 36 36 35 35 36 36 35 35 34 34 34 34 34 35 35 34 34 34 34 34
29 29 29 30 31 31 31 31 31 32 32 33 33 34 34 34 34 35 35 36 36 36 36 37 37 37 37 36 36 36 35 35 34 34 34 34 35 35 35 34 34 34 35
31 31 31 31 32 32 32 32 32 33 33 34 34 35 34 34 35 35 36 37 37 37 37 37 37 37 36 36 36 36 35 35 35 35 35 34 35 35 34 35 35 35 35
32 32 32 32 33 33 33 33 33 33 34 34 35 35 35 35 36 37 37 37 37 38 38 38 37 37 37 37 37 36 36 35 35 35 35 35 35 35 35 35 35 35 35
33 33 33 33 33 34 34 34 34 34 34 35 36 36 36 36 37 38 38 37 37 37 38 38 37 36 36 37 36 36 36 35 35 35 35 35 35 35 35 35 35 35 36
33 33 33 33 33 33 34 34 34 34 34 35 36 36 36 36 37 38 38 38 38 38 37 37 37 36 36 35 35 35 35 35 35 35 35 35 35 35 35 35 36 35 35
33 33 33 33 33 33 33 34 34 34 35 35 35 35 36 36 37 37 37 37 37 37 36 36 36 35 35 36 36 35 35 35 35 36 36 35 35 34 34 34 35 35 35
33 33 33 34 34 34 34 34 34 34 35 36 36 36 36 37 37 37 37 37 37 37 36 36 36 36 36 35 34 35 35 35 35 35 34 34 34 34 34 34 33 33 33
Wind_Direction
264 265 266 268 269 273 276 279 280 285 288 287 289 293 295 297 296 296 298 298 297 298 298 297 295 295 295 295 293 292 295 294 292 289 290 290 290 289 290 291 291 291 291
265 265 266 267 269 271 273 278 281 284 288 289 289 291 291 291 291 291 295 295 294 296 298 299 299 299 296 295 293 291 292 294 293 290 289 291 291 289 289 290 290 290 290
269 269 270 271 272 274 275 278 282 284 288 290 289 288 288 289 290 292 293 294 294 294 296 298 296 296 297 295 293 292 291 293 293 292 290 289 289 290 291 290 290 290 289
272 271 271 271 271 273 276 277 280 282 284 287 288 287 288 290 290 290 291 291 292 293 294 297 295 292 294 294 292 290 290 290 290 290 290 288 288 289 289 289 290 289 286
275 272 272 273 273 273 275 278 279 280 282 283 286 286 286 287 288 288 289 290 290 292 293 294 293 291 290 290 290 289 288 287 287 288 289 288 288 288 288 287 286 285 285
279 278 276 275 273 272 273 277 281 281 282 283 283 284 285 285 286 286 287 289 289 289 290 292 292 291 289 288 288 287 287 287 287 286 286 287 287 287 287 286 284 283 282
283 280 279 278 276 274 275 278 280 281 282 282 283 282 284 284 284 285 285 286 286 287 287 288 288 288 287 286 285 285 284 284 285 285 285 286 286 287 287 286 285 283 282
283 282 281 281 280 279 277 278 279 279 280 281 282 283 284 285 285 285 285 285 285 286 287 286 285 286 285 284 282 282 284 283 283 283 284 285 286 286 285 285 285 283 281
282 282 282 282 281 281 279 278 278 278 280 281 282 283 284 285 284 283 284 284 284 285 285 285 284 283 284 283 281 282 283 282 282 282 282 283 283 284 284 284 284 284 282
280 280 280 281 282 281 280 279 278 278 279 281 282 283 284 285 285 285 284 283 283 284 285 285 284 283 283 282 280 281 282 282 281 280 280 281 282 283 283 284 283 283 282
281 280 279 281 282 283 283 281 279 279 280 281 282 282 283 283 283 284 284 284 282 283 284 284 284 284 283 283 281 280 280 281 280 280 279 279 280 282 282 283 283 282 281
279 279 280 282 282 283 283 281 280 281 281 282 282 282 282 282 282 283 284 284 283 283 283 283 283 283 284 283 283 282 281 281 280 280 279 278 279 280 280 282 282 281 280
278 279 281 284 284 283 283 283 283 283 283 283 283 283 282 282 283 284 285 284 283 282 283 283 283 284 283 283 283 283 282 281 280 280 279 278 279 280 280 281 281 280 279
280 280 281 283 284 284 285 285 284 284 284 285 284 283 282 283 283 283 283 283 283 282 282 284 284 284 284 283 282 282 282 280 279 279 278 278 278 279 280 280 279 278 277
281 281 282 284 285 284 285 285 284 285 285 285 285 283 282 283 283 283 284 283 283 284 283 284 285 285 284 283 282 282 281 280 278 278 278 278 279 280 280 280 278 276 275
283 284 282 283 283 283 284 284 284 285 285 285 285 284 283 284 283 282 283 282 282 284 284 285 285 285 285 284 283 282 282 280 279 278 277 279 279 278 278 278 276 275 274
284 284 283 282 282 283 283 284 285 286 285 284 284 284 285 284 283 284 284 284 284 284 285 285 285 286 286 285 285 284 283 282 280 279 278 278 277 276 276 275 274 274 274
285 285 284 283 283 283 283 284 286 286 286 286 285 284 285 285 284 284 283 283 284 286 286 285 285 285 285 285 286 286 285 284 282 280 279 278 278 278 276 275 273 273 273
286 286 285 284 284 285 285 284 285 286 286 286 286 286 285 284 284 284 283 284 285 285 286 285 285 285 285 285 286 285 284 283 282 281 281 280 279 278 275 273 273 273 273
285 285 285 285 284 285 286 286 285 285 285 285 286 287 287 286 286 286 284 284 285 285 284 285 285 285 285 286 286 285 284 283 283 282 281 281 280 278 276 274 273 272 272
286 285 286 285 285 285 286 286 286 286 285 285 285 287 287 287 286 286 285 284 284 285 285 284 284 285 284 285 286 286 285 284 283 283 282 281 280 278 277 275 273 273 272
286 286 286 286 285 285 286 287 287 287 287 286 286 287 287 288 287 286 286 285 285 285 285 284 284 284 284 284 284 285 285 285 283 282 281 280 280 279 278 276 275 273 272
287 287 287 287 285 285 285 286 287 288 288 288 288 288 288 288 289 288 286 285 285 286 285 284 283 283 285 284 284 283 284 284 283 283 282 281 280 279 278 276 275 275 274
288 289 289 288 287 286 286 286 287 288 289 289 288 288 288 288 289 288 287 286 286 286 284 283 283 283 283 284 284 284 284 284 284 283 282 282 282 280 279 277 275 275 275
288 289 289 288 289 288 288 288 288 288 288 289 289 288 288 289 290 289 288 288 288 286 286 285 285 284 284 284 284 284 283 283 284 284 283 283 282 281 281 279 277 275 274
287 288 288 288 289 289 288 288 287 286 287 288 289 289 289 288 289 289 289 288 288 287 286 286 286 285 284 284 283 282 282 282 283 283 284 283 282 282 282 280 279 277 275
Height
5850 5850 5850 5849 5849 5849 5849 5848 5848 5847 5847 5846 5845 5845 5844 5843 5842 5841 5840 5840 5839 5838 5837 5836 5835 5834 5833 5832 5831 5831 5830 5829 5829 5828 5827 5826 5826 5825 5824 5823 5822 5821 5821
5847 5847 5847 5846 5846 5846 5846 5845 5845 5844 5844 5843 5842 5842 5841 5841 5840 5839 5838 5837 5836 5835 5834 5833 5832 5831 5830 5830 5829 5828 5827 5826 5826 5825 5824 5823 5823 5821 5820 5819 5819 5818 5817
5844 5844 5844 5843 5843 5843 5842 5842 5841 5841 5840 5840 5839 5839 5838 5837 5837 5836 5835 5834 5833 5832 5831 5830 5829 5828 5827 5827 5826 5825 5824 5823 5822 5821 5821 5820 5819 5818 5817 5816 5815 5814 5813
5841 5840 5840 5840 5839 5839 5839 5838 5838 5837 5837 5836 5835 5835 5834 5834 5833 5832 5831 5831 5830 5829 5828 5827 5826 5825 5824 5823 5822 5821 5820 5820 5819 5818 5817 5816 5815 5814 5813 5812 5810 5809 5808
5837 5836 5836 5836 5835 5835 5835 5834 5834 5833 5833 5832 5832 5831 5830 5830 5829 5828 5827 5826 5826 5825 5824 5823 5822 5821 5820 5819 5818 5817 5816 5815 5815 5814 5813 5812 5811 5810 5809 5808 5807 5805 5803
5834 5833 5832 5831 5831 5831 5830 5830 5829 5829 5828 5828 5827 5827 5826 5825 5824 5824 5823 5822 5821 5821 5820 5819 5818 5817 5816 5815 5814 5813 5812 5811 5810 5809 5808 5807 5806 5805 5804 5803 5802 5800 5799
5830 5829 5828 5827 5827 5826 5826 5825 5825 5824 5824 5823 5823 5822 5821 5820 5819 5819 5818 5817 5817 5816 5815 5814 5813 5812 5811 5810 5809 5808 5807 5806 5805 5804 5803 5802 5801 5800 5799 5798 5796 5795 5794
5826 5825 5824 5823 5822 5821 5821 5820 5820 5819 5818 5818 5817 5816 5815 5815 5814 5813 5812 5812 5811 5810 5809 5808 5807 5806 5805 5804 5803 5802 5801 5800 5799 5798 5797 5796 5795 5794 5793 5792 5791 5790 5789
5821 5820 5819 5818 5817 5816 5815 5815 5814 5814 5813 5812 5811 5810 5809 5809 5808 5807 5806 5805 5805 5804 5803 5802 5801 5800 5799 5798 5797 5796 5795 5794 5793 5792 5791 5790 5789 5788 5786 5785 5784 5784 5783
5816 5815 5814 5813 5811 5810 5810 5809 5808 5807 5807 5806 5805 5804 5803 5802 5802 5801 5800 5799 5798 5797 5796 5795 5794 5793 5792 5791 5790 5789 5788 5787 5786 5785 5784 5783 5782 5781 5780 5779 5777 5776 5775
5811 5810 5809 5807 5806 5805 5804 5803 5802 5801 5800 5799 5798 5797 5796 5796 5795 5794 5793 5792 5791 5790 5789 5788 5786 5785 5784 5783 5782 5781 5781 5780 5778 5777 5777 5776 5775 5774 5772 5771 5770 5768 5767
5805 5804 5803 5802 5800 5799 5797 5796 5795 5794 5793 5792 5791 5790 5789 5788 5788 5787 5785 5784 5783 5782 5781 5780 5779 5778 5776 5775 5774 5773 5772 5771 5770 5769 5768 5768 5767 5766 5765 5763 5762 5761 5759
5799 5798 5797 5796 5794 5793 5791 5790 5789 5787 5786 5785 5784 5783 5782 5781 5780 5779 5778 5777 5775 5774 5773 5772 5771 5769 5768 5766 5765 5764 5763 5762 5761 5760 5760 5759 5758 5758 5756 5755 5754 5752 5751
5793 5792 5791 5789 5788 5786 5785 5783 5782 5780 5779 5777 5776 5775 5774 5773 5772 5771 5770 5769 5768 5766 5765 5763 5762 5760 5759 5757 5756 5755 5753 5753 5752 5751 5750 5749 5749 5748 5747 5746 5745 5744 5743
5787 5785 5784 5783 5781 5780 5778 5777 5775 5773 5772 5770 5769 5768 5766 5765 5764 5762 5761 5760 5759 5758 5756 5755 5753 5751 5749 5748 5746 5745 5744 5742 5742 5741 5740 5739 5739 5738 5737 5736 5735 5734 5734
5780 5779 5777 5776 5775 5773 5771 5769 5768 5766 5764 5762 5761 5759 5758 5757 5755 5754 5753 5751 5750 5749 5747 5746 5744 5742 5740 5738 5736 5735 5733 5732 5731 5731 5730 5729 5728 5727 5726 5726 5725 5725 5724
5773 5772 5771 5769 5767 5766 5764 5762 5760 5758 5756 5754 5752 5751 5749 5748 5746 5745 5743 5742 5741 5739 5738 5736 5734 5732 5730 5728 5726 5724 5723 5721 5720 5720 5719 5718 5717 5716 5716 5715 5715 5714 5714
5766 5764 5763 5761 5760 5758 5756 5754 5752 5750 5748 5746 5744 5742 5740 5739 5737 5735 5734 5733 5731 5730 5728 5726 5724 5722 5720 5718 5716 5714 5712 5711 5710 5709 5708 5707 5706 5706 5705 5705 5704 5704 5704
5758 5756 5755 5753 5751 5749 5747 5745 5743 5741 5739 5737 5735 5733 5731 5729 5727 5726 5724 5723 5721 5719 5717 5715 5713 5711 5709 5707 5705 5703 5702 5700 5699 5698 5697 5696 5695 5695 5694 5694 5693 5693 5693
5750 5748 5746 5745 5743 5741 5739 5737 5735 5733 5730 5728 5726 5724 5722 5719 5718 5716 5714 5712 5710 5708 5706 5704 5702 5700 5698 5696 5694 5692 5691 5690 5689 5687 5686 5685 5684 5683 5682 5682 5682 5682 5681
5741 5740 5738 5736 5734 5731 5729 5728 5726 5723 5721 5719 5717 5714 5712 5710 5708 5705 5703 5701 5699 5697 5695 5693 5691 5689 5687 5685 5683 5681 5680 5678 5677 5676 5675 5674 5673 5672 5671 5670 5670 5670 5669
5732 5730 5728 5726 5724 5722 5720 5718 5716 5714 5711 5709 5707 5704 5702 5699 5697 5695 5692 5690 5688 5685 5683 5681 5679 5677 5675 5674 5672 5670 5668 5667 5666 5664 5663 5662 5661 5660 5659 5659 5658 5657 5657
5723 5721 5719 5717 5714 5712 5710 5708 5706 5703 5701 5699 5696 5694 5691 5689 5686 5683 5681 5678 5676 5674 5671 5669 5667 5666 5664 5662 5660 5658 5657 5655 5654 5652 5651 5650 5649 5648 5647 5647 5646 5645 5645
5714 5712 5709 5707 5705 5702 5700 5698 5695 5693 5691 5688 5686 5683 5681 5678 5675 5672 5669 5667 5664 5662 5659 5657 5655 5654 5652 5651 5649 5647 5645 5644 5642 5641 5639 5638 5637 5635 5635 5634 5633 5633 5632
5704 5702 5700 5697 5695 5692 5690 5688 5685 5683 5681 5678 5675 5672 5670 5667 5664 5661 5658 5656 5653 5650 5648 5646 5644 5642 5641 5639 5637 5635 5634 5632 5631 5629 5628 5627 5625 5624 5623 5622 5621 5621 5620
5695 5692 5690 5687 5685 5683 5680 5677 5675 5672 5670 5667 5665 5662 5659 5656 5653 5650 5647 5644 5642 5639 5636 5634 5632 5631 5629 5627 5625 5624 5622 5621 5620 5618 5617 5615 5614 5613 5612 5611 5610 5609 5609